Nome, AK

9:27 AM AKDT on September 26, 2017 (GMT -0800)
Nome

Weather History for PAOM - October, 2010

Change the Weather History Date:

Monday, October 11, 2010

  Actual Average Record
Temperature  
Mean Temperature 25 °F 31 °F  
Max Temperature 32 °F 37 °F 52 °F (2016)
Min Temperature 17 °F 25 °F 9 °F (1965)
Degree Days  
Heating Degree Days 40 34  
Month to date heating degree days 328 349  
Since 1 July heating degree days 1690 1875  
Cooling Degree Days 0 0  
Month to date cooling degree days 0 0  
Year to date cooling degree days 2 3  
Moisture  
Dew Point 15 °F    
Average Humidity 0    
Maximum Humidity 0    
Minimum Humidity 0    
Precipitation  
Precipitation 0.00 in 0.05 in 0.75 in (1966)
Month to date precipitation 0.30 0.66  
Year to date precipitation 9.77 13.56  
Snow  
Snow 0.00 in 0.10 in 6.70 in (1996)
Month to date snowfall 0.3 0.9  
Since 1 July snowfall 0.3 1.5  
Since 1 September snowfall 0.3 1.5  
Snow Depth 0.00 in    
Sea Level Pressure  
Sea Level Pressure 29.89 in    
Wind  
Wind Speed 6 mph (NNW)    
Max Wind Speed 12 mph    
Max Gust Speed 14 mph    
Visibility 10 miles    
Events      
T = Trace of Precipitation, MM = Missing Value Source: NWS Daily Summary

Daily Weather History Graph

Daily Weather History Graph

Search for Another Location

Airport or City:

Trip Planner

Search our weather history database for the weather conditions in past years. The results will help you decide how hot, cold, wet, or windy it might be!

Date:

Astronomy

Oct. 11, 2010 Rise Set
Actual Time 9:41 AM AKDT 7:53 PM AKDT
Civil Twilight 8:52 AM AKDT 8:42 PM AKDT
Nautical Twilight 7:56 AM AKDT 9:38 PM AKDT
Astronomical Twilight 6:58 AM AKDT 10:35 PM AKDT
Moon 5:28 PM AKDT (10/11) 7:45 PM AKDT (10/11)
Length of Visible Light 11h 49m
Length of Day
10h 12m
Waxing Crescent, 21% of the Moon is Illuminated
Oct 11
Waxing Crescent
Oct 14
First Quarter
Oct 22
Full
Oct 30
Last Quarter
Nov 5
New

Hourly Weather History & Observations

Time (AKDT) Temp. Windchill Dew Point Humidity Pressure Visibility Wind Dir Wind Speed Gust Speed Precip Events Conditions
12:53 AM 23.0 °F 14.7 °F 15.1 °F 72% 29.81 in 10.0 mi North 6.9 mph - N/A   Mostly Cloudy
1:53 AM 21.9 °F 14.5 °F 15.1 °F 75% 29.81 in 10.0 mi North 5.8 mph - N/A   Partly Cloudy
2:53 AM 21.0 °F 11.4 °F 14.0 °F 74% 29.83 in 10.0 mi North 8.1 mph - N/A   Mostly Cloudy
3:53 AM 19.9 °F 12.1 °F 12.9 °F 74% 29.83 in 10.0 mi North 5.8 mph - N/A   Partly Cloudy
4:53 AM 19.0 °F 9.0 °F 12.0 °F 74% 29.84 in 10.0 mi NNW 8.1 mph - N/A   Clear
5:53 AM 19.0 °F 9.0 °F 12.0 °F 74% 29.84 in 10.0 mi North 8.1 mph - N/A   Clear
6:53 AM 18.0 °F 7.7 °F 10.9 °F 74% 29.85 in 10.0 mi NNW 8.1 mph - N/A   Clear
7:53 AM 19.0 °F 7.5 °F 12.0 °F 74% 29.85 in 10.0 mi NNW 10.4 mph - N/A   Clear
8:53 AM 19.0 °F 9.0 °F 12.0 °F 74% 29.86 in 10.0 mi NW 8.1 mph - N/A   Clear
9:53 AM 19.9 °F 9.3 °F 12.9 °F 74% 29.87 in 10.0 mi NNW 9.2 mph - N/A   Partly Cloudy
10:53 AM 21.0 °F 10.6 °F 12.9 °F 71% 29.88 in 10.0 mi NNW 9.2 mph - N/A   Mostly Cloudy
11:53 AM 25.0 °F 18.1 °F 15.1 °F 66% 29.90 in 10.0 mi NNW 5.8 mph - N/A   Mostly Cloudy
1:53 PM 30.9 °F 26.2 °F 17.1 °F 57% 29.91 in 10.0 mi North 4.6 mph - N/A   Mostly Cloudy
2:53 PM 32.0 °F 28.7 °F 17.1 °F 54% 29.91 in 10.0 mi North 3.5 mph - N/A   Mostly Cloudy
3:53 PM 30.9 °F - 17.1 °F 57% 29.91 in 10.0 mi Calm Calm - N/A   Mostly Cloudy
4:53 PM 32.0 °F 28.7 °F 17.1 °F 54% 29.91 in 10.0 mi WSW 3.5 mph - N/A   Overcast
5:53 PM 32.0 °F - 17.1 °F 54% 29.92 in 10.0 mi Calm Calm - N/A   Overcast
6:53 PM 32.0 °F - 17.1 °F 54% 29.92 in 10.0 mi Calm Calm - N/A   Overcast
7:53 PM 32.0 °F - 18.0 °F 56% 29.93 in 10.0 mi Calm Calm - N/A   Mostly Cloudy
8:53 PM 30.0 °F 25.2 °F 19.0 °F 64% 29.94 in 10.0 mi NE 4.6 mph - N/A   Mostly Cloudy
9:53 PM 28.9 °F 21.9 °F 18.0 °F 64% 29.96 in 10.0 mi North 6.9 mph - N/A   Mostly Cloudy
10:53 PM 28.0 °F 20.0 °F 17.1 °F 63% 29.97 in 10.0 mi NNW 8.1 mph - N/A   Mostly Cloudy
11:53 PM 28.0 °F 20.8 °F 17.1 °F 63% 29.98 in 10.0 mi NNW 6.9 mph - N/A   Overcast